| time (UTC) | temp F | wind direction | speed knots | gust knots | rain 1hr in | rain 24hr in | rain mn in | humidity % | barometer mb |
| 20260504043016 | 46 | 247 | 0.9 | 2.6 | 0.00 | 0.00 | 0.00 | 54 | 1012.6 |
| 20260504040041 | 46 | 0.0 | 0.0 | 0.00 | 0.00 | 0.00 | 55 | 1012.3 | |
| 20260504033024 | 46 | 0.0 | 0.0 | 0.00 | 0.00 | 0.00 | 55 | ||
| 20260504030042 | 46 | 0.0 | 0.0 | 0.00 | 0.00 | 0.00 | 54 | ||
| 20260504023020 | 48 | 247 | 1.7 | 4.3 | 0.00 | 0.00 | 0.00 | 52 | 1012.4 |
| 20260504020021 | 48 | 270 | 1.7 | 3.5 | 0.00 | 0.00 | 0.00 | 51 | 1012.3 |
| 20260504013021 | 49 | 270 | 2.6 | 5.2 | 0.00 | 0.00 | 0.00 | 50 | 1012.2 |
| 20260504010041 | 49 | 270 | 2.6 | 6.1 | 0.00 | 0.00 | 0.00 | 47 | 1011.9 |
| 20260504003022 | 50 | 270 | 2.6 | 5.2 | 0.00 | 0.00 | 0.00 | 45 | 1011.5 |
| 20260504000025 | 0 | 270 | 2.6 | 4.3 | 0.00 | 0.00 | 0.00 | 44 | |
| 20260503233022 | 51 | 270 | 3.5 | 7.8 | 0.00 | 0.00 | 0.00 | 42 | |
| 20260503230022 | 0 | 270 | 3.5 | 9.6 | 0.00 | 0.00 | 0.00 | 39 | |
| 20260503223023 | 52 | 270 | 4.3 | 8.7 | 0.00 | 0.00 | 0.00 | 36 | 1010.0 |
| 20260503220044 | 54 | 270 | 4.3 | 14.8 | 0.00 | 0.00 | 0.00 | 32 | 1009.8 |
| 20260503213043 | 54 | 270 | 3.5 | 8.7 | 0.00 | 0.00 | 0.00 | 33 | 1009.9 |
| 20260503210020 | 55 | 270 | 3.5 | 9.6 | 0.00 | 0.00 | 0.00 | 36 | 1009.9 |
| 20260503203023 | 54 | 270 | 3.5 | 8.7 | 0.00 | 0.00 | 0.00 | 36 | 1009.8 |
| 20260503200016 | 53 | 270 | 4.3 | 10.4 | 0.00 | 0.00 | 0.00 | 36 | |
| 20260503193021 | 53 | 270 | 4.3 | 9.6 | 0.00 | 0.00 | 0.00 | 37 | |
| 20260503190016 | 0 | 270 | 3.5 | 9.6 | 0.00 | 0.00 | 0.00 | 41 | |
| 20260503183021 | 52 | 270 | 3.5 | 8.7 | 0.00 | 0.00 | 0.00 | 41 | 1010.7 |
| 20260503180041 | 50 | 270 | 3.5 | 8.7 | 0.00 | 0.00 | 0.00 | 47 | 1010.6 |
| 20260503173024 | 48 | 270 | 2.6 | 7.0 | 0.00 | 0.00 | 0.00 | 48 | 1011.0 |
| 20260503053020 | 38 | 0.0 | 3.5 | 0.00 | 0.00 | 0.00 | 74 | 1011.6 | |
| 20260503050016 | 39 | 22 | 0.9 | 3.5 | 0.00 | 0.00 | 0.00 | 72 | 1011.7 |